Weather History for KHYA - November, 2012

Change the Weather History Date:

Friday, November 9, 2012

  Actual Average Record
Temperature  
Mean Temperature 45 °F -  
Max Temperature 51 °F 51 °F 64 °F (1938)
Min Temperature 39 °F 38 °F 21 °F (1967)
Degree Days  
Heating Degree Days 20    
Moisture  
Dew Point 34 °F    
Average Humidity 68    
Maximum Humidity 96    
Minimum Humidity 50    
Precipitation  
Precipitation 0.00 in - - ()
Sea Level Pressure  
Sea Level Pressure 29.87 in    
Wind  
Wind Speed 14 mph (NNW)    
Max Wind Speed 21 mph    
Max Gust Speed 34 mph    
Visibility 10 miles    
Events Rain    
Averages and records for this station are not official NWS values.
T = Trace of Precipitation, MM = Missing Value Source: NWS Daily Summary

Daily Weather History Graph

Daily Weather History Graph

Search for Another Location

Airport or City:

Trip Planner

Search our weather history database for the weather conditions in past years. The results will help you decide how hot, cold, wet, or windy it might be!

Date:

Astronomy

Nov. 09, 2012 Rise Set
Actual Time 6:23 AM EST 4:26 PM EST
Civil Twilight 5:53 AM EST 4:55 PM EST
Nautical Twilight 5:20 AM EST 5:28 PM EST
Astronomical Twilight 4:48 AM EST 6:01 PM EST
Moon 1:14 AM EST (11/9) 1:40 PM EST (11/9)
Length of Visible Light 11h 01m
Length of Day
10h 02m
Waning Crescent, 23% of the Moon is Illuminated
Nov 9
Waning Crescent
Nov 13
New
Nov 20
First Quarter
Nov 28
Full
Dec 6
Last Quarter

Hourly Weather History & Observations

Time (EST) Temp. Windchill Dew Point Humidity Pressure Visibility Wind Dir Wind Speed Gust Speed Precip Events Conditions
12:56 AM 42.1 °F 33.9 °F 41.0 °F 96% 29.65 in 9.0 mi NNW 17.3 mph 28.8 mph 0.00 in Rain Light Rain
1:56 AM 42.1 °F 33.6 °F 39.9 °F 92% 29.66 in 10.0 mi NNW 18.4 mph 31.1 mph 0.00 in   Overcast
2:54 AM 42.8 °F 34.5 °F 39.2 °F 87% 29.67 in 10.0 mi NNW 18.4 mph 33.4 mph 0.00 in   Overcast
2:56 AM 43.0 °F 35.4 °F 39.0 °F 86% 29.68 in 10.0 mi NNW 16.1 mph 33.4 mph 0.00 in   Overcast
3:56 AM 43.0 °F 34.8 °F 37.0 °F 80% 29.70 in 10.0 mi NNW 18.4 mph 31.1 mph N/A   Overcast
4:56 AM 43.0 °F 34.2 °F 36.0 °F 76% 29.73 in 10.0 mi North 20.7 mph 34.5 mph N/A   Overcast
5:56 AM 41.0 °F 33.1 °F 35.1 °F 79% 29.76 in 10.0 mi NW 15.0 mph 20.7 mph N/A   Overcast
6:56 AM 41.0 °F 33.9 °F 34.0 °F 76% 29.80 in 10.0 mi NNW 12.7 mph 25.3 mph N/A   Overcast
7:56 AM 42.1 °F 33.3 °F 34.0 °F 73% 29.83 in 10.0 mi NNW 19.6 mph 27.6 mph N/A   Overcast
8:56 AM 43.0 °F 35.4 °F 34.0 °F 71% 29.84 in 10.0 mi NNW 16.1 mph 25.3 mph N/A   Overcast
9:17 AM 44.6 °F 37.4 °F 35.6 °F 71% 29.85 in 10.0 mi NNW 16.1 mph 27.6 mph N/A   Scattered Clouds
9:56 AM 45.0 °F 37.6 °F 35.1 °F 68% 29.85 in 10.0 mi NNW 17.3 mph 27.6 mph N/A   Clear
10:56 AM 46.9 °F - 36.0 °F 66% 29.86 in 10.0 mi NNW 12.7 mph 25.3 mph N/A   Clear
11:56 AM 48.0 °F - 34.0 °F 58% 29.89 in 10.0 mi NNW 12.7 mph 24.2 mph N/A   Clear
12:56 PM 48.9 °F - 34.0 °F 56% 29.89 in 10.0 mi NNW 17.3 mph 25.3 mph N/A   Clear
1:56 PM 51.1 °F - 34.0 °F 52% 29.90 in 10.0 mi NW 11.5 mph 16.1 mph N/A   Clear
2:56 PM 51.1 °F - 33.1 °F 50% 29.91 in 10.0 mi NNW 10.4 mph - N/A   Clear
3:56 PM 50.0 °F - 33.1 °F 52% 29.94 in 10.0 mi North 3.5 mph - N/A   Clear
4:56 PM 43.0 °F - 33.1 °F 68% 29.96 in 10.0 mi Calm Calm - N/A   Clear
5:56 PM 44.1 °F 41.5 °F 32.0 °F 63% 30.00 in 10.0 mi NNW 4.6 mph - N/A   Clear
6:56 PM 43.0 °F 40.3 °F 30.0 °F 60% 30.02 in 10.0 mi NNW 4.6 mph - N/A   Clear
7:56 PM 45.0 °F 41.2 °F 28.0 °F 52% 30.04 in 10.0 mi NNW 6.9 mph - N/A   Clear
8:56 PM 46.0 °F 42.5 °F 28.9 °F 51% 30.06 in 10.0 mi NW 6.9 mph - N/A   Clear
9:56 PM 44.1 °F 42.5 °F 30.0 °F 58% 30.08 in 10.0 mi West 3.5 mph - N/A   Clear
10:56 PM 39.9 °F 35.8 °F 27.0 °F 60% 30.08 in 10.0 mi West 5.8 mph - N/A   Clear
11:56 PM 39.0 °F 34.8 °F 28.0 °F 65% 30.09 in 10.0 mi West 5.8 mph - N/A   Clear